Theta_e
298 299 299 301 302 303 304 305 307 308 310 311 313 315 316 318 320 321 321 320 319 320 321 320 319 320 317 315 312 311 309 308 305 300 292 292 291 290 290 289 290 289 289
296 297 297 297 297 297 298 299 301 302 304 306 307 308 310 313 316 318 318 319 319 319 319 317 317 315 313 311 308 307 306 305 306 303 290 288 288 288 288 287 288 288 287
293 293 292 291 291 292 293 295 296 297 298 299 301 301 303 304 308 311 314 315 316 317 317 314 315 310 309 304 304 304 302 299 296 292 290 287 286 285 285 285 285 285 287
289 289 288 287 288 289 290 290 291 293 294 295 296 296 297 298 299 301 305 307 309 310 308 307 308 305 306 302 301 300 294 292 288 287 285 285 284 284 283 282 282 283 284
285 285 284 285 285 286 286 287 288 289 290 291 291 292 293 293 295 293 295 298 300 300 298 297 296 292 292 295 294 291 290 287 286 284 283 282 282 282 282 283 282 282 283
282 282 282 282 282 283 283 284 285 286 287 288 289 289 289 289 292 293 292 292 293 293 294 291 290 287 289 291 293 292 290 286 284 283 282 282 282 283 283 282 281 280 279
280 280 279 279 279 280 281 281 282 283 285 286 287 287 287 287 290 290 289 287 287 286 286 286 285 285 285 286 289 289 288 290 289 286 284 283 283 283 283 282 282 280 280
278 278 278 277 277 279 279 279 279 281 282 283 283 284 284 285 288 288 287 285 284 284 284 284 284 284 284 284 284 283 283 283 283 284 283 283 283 283 284 283 282 280 280
275 275 276 276 276 277 277 277 278 279 281 281 281 281 281 282 286 286 284 283 282 281 282 282 282 283 285 285 283 282 281 281 284 285 285 285 284 283 283 280 276 275 273
274 274 275 275 274 275 275 276 277 278 280 280 280 279 279 280 284 285 283 282 281 280 281 281 283 282 284 284 281 280 280 279 280 279 279 279 280 280 281 281 279 276 276
273 273 273 273 273 274 273 274 275 276 276 276 277 277 277 278 280 283 283 280 281 280 280 279 280 282 282 282 281 280 279 278 276 275 275 276 277 278 277 277 276 274 272
271 271 271 271 272 272 269 271 271 271 272 273 273 274 276 276 279 280 281 282 281 279 278 279 279 280 280 280 278 278 277 275 273 272 272 272 273 273 273 274 274 274 274
269 269 269 268 270 271 268 270 270 270 270 271 272 271 273 276 276 279 280 280 279 277 276 277 277 277 276 275 276 276 273 272 271 270 270 271 271 272 272 272 272 272 272
267 268 269 269 269 270 271 272 268 268 268 269 269 268 269 272 274 276 275 273 275 273 274 273 275 274 275 273 272 271 271 271 270 269 269 269 270 269 269 270 268 268 267
270 270 270 270 269 270 270 271 274 275 276 269 265 268 270 270 276 278 277 274 272 274 267 268 269 269 269 269 269 269 269 269 268 268 267 267 267 267 267 268 267 266 264
267 268 268 268 268 268 268 268 273 275 277 277 277 276 274 278 277 277 276 276 275 274 265 264 266 267 267 267 266 266 267 267 267 266 266 266 265 264 264 265 265 264 263
262 265 264 266 266 265 265 265 264 267 272 273 273 275 275 276 276 276 274 273 273 267 258 260 262 264 264 265 265 265 264 265 266 265 264 264 264 263 262 262 263 263 262
258 262 261 261 263 264 264 264 264 262 262 263 267 271 272 274 274 273 272 266 257 260 257 256 256 259 260 261 262 262 262 262 262 262 262 261 261 261 261 260 261 260 260
259 259 259 259 260 263 262 261 260 258 257 256 258 263 264 269 271 269 267 254 252 252 252 252 254 255 257 257 257 256 257 259 259 259 258 259 259 259 259 260 260 261 260
255 259 259 257 259 259 259 259 258 257 257 255 255 255 256 257 254 251 251 250 249 250 250 250 253 252 252 252 253 252 255 254 256 256 258 258 259 259 260 260 261 261 261
253 253 257 255 256 257 255 255 255 253 253 253 254 254 269 256 251 248 248 248 248 250 251 251 253 253 253 251 249 252 251 255 257 257 258 258 259 259 261 261 262 262 262
251 251 251 250 252 253 253 253 252 250 250 249 251 250 264 249 248 249 249 250 251 250 250 250 251 251 252 251 253 252 254 255 256 257 258 259 259 260 261 261 261 262 262
251 250 249 248 248 249 248 247 246 246 248 249 250 250 250 252 251 250 251 252 251 252 252 248 250 252 251 251 252 253 254 256 257 258 258 259 259 260 260 260 261 261 261
246 247 247 246 245 246 246 248 250 251 250 250 249 250 251 251 251 251 251 252 251 251 250 251 251 251 253 253 253 254 255 257 257 258 258 258 259 260 260 260 261 261 262
244 245 245 247 246 248 248 249 249 249 249 249 250 248 248 251 251 251 251 251 251 250 252 251 251 252 252 252 253 254 255 257 257 258 258 258 258 259 259 260 261 262 263
244 244 246 246 247 248 249 249 250 250 250 251 251 250 250 251 251 251 251 250 251 251 252 253 253 252 252 253 254 256 259 262 261 262 263 264 264 265 266 267 267 268 268
Wind_Speed
13 11 9 8 8 7 6 7 7 6 7 8 8 9 9 9 9 10 11 11 12 13 12 13 14 13 9 8 9 8 9 8 8 3 4 3 4 5 3 3 3 1 1
12 11 10 10 10 10 10 11 10 10 8 7 7 7 8 9 10 10 11 10 12 13 12 10 12 7 11 9 7 10 9 9 7 11 4 4 6 5 4 3 2 1 2
11 10 10 10 11 11 11 11 11 11 11 9 6 7 7 6 7 9 10 11 10 11 11 10 13 9 10 6 8 8 7 4 4 4 5 2 2 1 0 1 1 1 1
10 10 10 11 11 10 10 10 10 10 9 10 8 8 7 6 6 6 7 9 9 7 6 5 6 6 9 8 8 9 4 6 4 3 3 3 2 1 2 1 4 3 6
9 9 9 10 10 9 10 11 10 9 8 8 9 9 7 6 5 6 6 6 6 5 4 3 4 5 6 3 3 4 5 4 3 4 3 2 2 1 2 1 2 3 3
9 10 11 11 11 11 11 11 11 11 11 10 10 8 8 5 13 13 8 5 5 5 5 1 3 2 3 3 3 4 5 5 3 3 2 2 2 2 2 1 0 2 3
8 9 10 11 11 12 12 12 12 12 12 11 11 10 9 10 19 18 14 5 4 4 3 4 5 4 6 6 11 13 12 14 10 3 2 2 1 2 1 1 2 2 4
6 8 9 10 11 11 11 12 12 11 11 10 10 11 10 11 20 18 14 7 7 9 9 9 8 9 9 6 6 8 7 7 7 6 6 4 3 1 0 2 3 4 3
9 9 10 10 10 10 11 11 9 8 7 6 6 9 10 12 23 20 11 7 9 10 10 11 9 10 14 12 6 6 6 6 7 10 9 8 7 7 5 1 1 1 2
10 10 9 9 9 8 9 10 8 7 6 5 7 8 9 9 20 22 13 5 7 5 7 9 16 9 14 14 8 6 6 5 6 6 6 7 7 6 7 6 5 3 3
9 8 7 8 8 8 8 5 8 8 6 6 6 7 8 10 12 19 18 8 5 5 5 5 5 12 13 14 12 8 7 7 8 5 4 4 3 4 5 5 5 3 2
8 7 7 7 6 6 6 6 5 6 5 5 5 5 6 8 14 15 16 16 12 6 7 5 7 15 15 15 11 14 12 8 4 3 3 3 3 4 4 5 5 4 4
7 5 5 5 5 6 5 6 4 5 5 5 5 4 4 5 5 13 14 15 15 8 5 9 11 11 12 10 13 12 7 4 4 3 4 4 4 5 6 5 5 5 6
5 5 5 5 6 5 5 3 2 2 3 3 3 4 4 4 4 4 4 5 9 6 7 5 8 9 11 8 6 7 5 5 4 3 4 4 4 4 4 4 4 5 5
5 4 5 4 5 5 5 3 4 4 5 1 0 1 4 4 6 11 9 3 2 5 3 2 3 4 4 4 4 4 4 4 4 4 4 4 4 4 4 3 4 4 4
7 6 5 5 5 5 5 5 9 10 10 11 9 7 3 11 12 12 12 10 12 11 4 3 4 4 5 4 4 4 4 4 4 4 4 4 4 5 5 5 4 4 6
3 4 4 5 4 5 5 5 6 7 9 9 12 11 12 12 11 13 13 10 11 8 3 3 3 4 4 4 4 4 4 5 5 4 4 5 5 5 5 6 5 6 7
4 6 2 3 4 4 4 4 3 4 5 4 8 10 12 12 12 12 12 7 4 5 2 2 3 2 3 3 4 4 5 5 4 4 5 5 6 5 6 6 6 7 8
4 3 3 3 3 3 3 3 2 3 3 3 4 6 8 12 10 10 9 2 1 2 2 2 2 2 3 3 3 3 4 5 5 5 4 5 6 5 7 7 8 10 11
3 6 4 2 3 3 3 3 3 3 3 3 3 3 4 3 4 3 2 1 2 3 3 3 4 4 4 3 4 3 5 4 5 5 6 6 7 6 8 9 8 9 10
2 3 4 3 2 2 2 2 2 2 3 3 4 3 12 2 3 2 3 3 3 4 4 4 4 4 4 4 3 4 4 6 6 6 6 7 7 8 9 9 10 10 11
2 3 2 2 2 3 2 2 3 3 3 3 4 4 13 2 2 4 4 4 4 4 4 4 4 4 4 4 5 5 6 7 7 7 7 8 8 9 10 10 11 11 11
2 3 3 3 2 3 3 2 2 2 4 4 4 4 3 4 4 4 5 5 4 5 4 3 5 6 4 5 5 6 7 8 8 7 9 9 9 10 10 11 12 12 12
2 3 3 3 3 3 3 4 4 5 4 4 4 4 4 4 5 5 5 5 5 5 4 5 5 7 7 6 5 6 8 9 8 10 11 11 12 13 11 12 13 15 15
3 3 3 3 3 4 4 4 4 4 5 4 5 4 4 5 5 5 5 5 5 5 7 5 5 7 9 10 11 13 14 18 14 15 10 12 15 18 15 14 16 16 19
3 3 4 3 4 4 4 4 5 4 5 5 5 5 5 5 5 5 5 5 5 6 8 6 7 10 11 10 12 14 16 18 16 18 13 12 14 14 14 16 21 15 16
Wind_Direction
355 349 349 349 349 346 344 335 329 318 314 311 302 293 281 270 257 250 244 245 246 244 240 235 233 227 222 212 208 206 209 206 220 185 185 191 194 203 199 206 209 198 224
352 356 5 7 0 359 354 347 343 337 328 316 313 305 299 293 281 271 266 251 246 244 243 234 236 228 220 216 204 217 211 203 198 221 157 195 203 201 192 210 190 240 324
355 360 4 6 1 353 347 344 343 338 334 328 323 313 301 291 293 289 282 276 267 252 249 230 239 219 224 206 206 216 209 179 190 156 193 160 180 136 246 227 295 332 334
350 357 357 354 347 342 337 337 337 335 331 332 325 309 302 299 291 283 282 281 282 276 279 270 256 223 231 211 213 210 192 169 157 177 175 189 178 111 75 333 328 8 329
348 351 350 341 336 335 339 336 333 333 327 321 320 323 316 318 315 313 293 276 264 266 273 302 319 332 324 251 177 197 161 164 174 171 157 143 173 175 181 141 281 311 281
353 352 346 345 342 344 341 340 339 339 339 333 334 331 331 339 334 318 289 284 282 269 271 139 79 58 63 196 170 186 162 158 170 148 150 178 170 173 149 153 158 17 317
346 348 349 345 344 344 340 341 347 342 337 342 344 347 5 13 9 6 356 343 351 11 19 84 63 38 52 69 73 76 64 62 61 99 112 90 92 60 74 291 304 242 260
354 349 346 341 341 338 341 346 341 338 342 351 359 10 23 20 16 15 21 32 41 36 33 39 54 48 42 53 77 74 68 63 58 64 73 75 75 102 67 310 307 289 268
357 350 347 344 339 341 341 336 332 328 341 359 22 27 25 21 20 21 30 41 54 52 54 54 54 53 44 42 54 67 65 70 53 56 56 50 28 6 350 37 345 21 301
351 344 340 344 342 343 336 331 329 329 349 6 40 32 33 31 21 20 22 30 63 60 53 41 45 49 46 45 46 41 55 41 38 36 25 23 22 20 28 30 9 332 321
334 333 343 344 339 345 339 340 346 348 360 9 20 27 24 19 12 23 28 23 22 44 53 49 36 51 56 64 57 49 44 46 27 27 18 17 21 36 40 31 17 353 329
330 339 342 333 339 347 344 349 355 6 3 4 12 22 14 15 20 21 26 34 37 42 35 28 28 36 44 45 48 48 49 54 36 36 42 38 28 20 5 355 341 325 297
332 333 334 335 341 337 351 358 4 5 19 17 18 14 3 357 2 15 20 31 39 48 54 60 54 43 49 43 46 45 41 28 19 15 15 15 359 342 329 327 319 309 293
318 326 323 338 340 342 342 333 330 7 23 24 15 4 355 345 330 32 27 16 17 28 33 34 54 58 52 51 36 34 21 17 10 6 352 340 327 324 314 317 310 312 306
311 321 334 336 343 342 338 312 339 343 24 333 313 331 341 338 12 22 13 13 10 22 42 6 26 27 33 33 18 18 17 9 8 347 334 328 315 313 300 304 285 295 257
331 343 344 341 344 344 340 331 345 354 359 10 27 22 346 358 15 9 6 6 17 12 19 14 17 14 20 9 12 353 350 348 341 326 318 308 303 305 297 297 283 272 280
315 324 332 339 339 343 341 344 339 338 353 9 3 5 360 353 12 3 5 3 17 33 41 1 359 3 355 350 348 342 320 314 315 311 306 298 292 293 292 291 301 296 290
312 313 315 310 322 329 336 334 336 343 334 332 350 351 1 350 5 359 6 21 7 8 18 352 333 326 318 319 318 315 310 311 311 306 295 289 287 286 292 284 279 276 279
316 313 317 311 301 322 328 331 335 333 325 309 328 344 353 349 356 6 22 74 341 321 316 311 282 290 299 294 291 282 280 293 292 291 280 274 277 267 272 269 270 270 271
302 309 319 315 317 323 330 333 331 339 329 322 318 294 310 5 2 323 331 335 319 275 284 286 293 286 277 272 281 278 293 288 285 277 277 275 276 266 270 273 272 275 272
279 296 311 311 303 306 296 305 301 302 291 301 285 276 309 101 294 268 292 289 268 275 279 272 281 278 272 274 272 275 260 275 270 270 268 268 266 274 272 272 275 272 271
268 278 297 284 299 307 301 292 291 280 278 283 294 298 327 339 302 287 284 278 273 256 253 257 273 266 266 260 270 261 265 268 270 267 270 273 274 273 274 274 273 271 270
286 294 298 292 285 297 310 294 288 285 287 283 281 291 301 293 282 276 277 278 278 281 272 252 266 280 255 249 242 250 267 272 273 273 279 280 277 273 271 272 275 277 275
294 277 276 283 307 301 291 292 293 281 276 278 286 287 281 276 278 279 280 282 284 280 271 270 262 268 285 280 260 248 253 263 266 267 264 270 274 277 274 271 271 271 270
288 280 265 264 271 278 290 280 278 279 281 278 286 278 279 283 282 280 280 280 281 283 287 276 269 271 274 275 276 277 273 275 267 265 267 261 261 265 265 266 267 267 266
272 257 259 264 265 258 261 275 278 280 282 286 280 280 279 285 281 282 283 282 283 284 287 285 279 274 277 281 276 278 281 283 281 275 266 264 266 268 269 273 277 276 282